STARLINK-4209 (52855 NORAD) Tracking and Keplerian Element Data

This shows tracking and keplerian element data for the satellite.

Feedback or suggestion? Click here.




ElementValue
Catalog52855
NameSTARLINK-4209
Epoch Orbit1628
Epoch Day270.25001157
Epoch Year2022
RAAN277.9601
Inclination53.2131
Eccentricity0.0001822
Argument of Perigee42.1046
Mean Anonmoly231.3055
Mean Motion15.08851213
Decay Rate-0.00047112
L11 52855U 22062AB 22270.25001157 -.00047112 00000+0 -29605-2 0 9991
L22 52855 53.2131 277.9601 0001822 42.1046 231.3055 15.08851213 16284

Live tracking and technical data element details for STARLINK-4209 (NORAD 52855). STARLINK-4209 can be tracked NOW for your location showing map with azimuth and elevation plus other details from your city location.

Track the satellite on the map from your city or location and see movement details for azimuth, elevation, latitude, longitude, range, height, and movement on the map or in text.







IsCatalogInMostPopularTable: catalog: 52855, numindb: 5
Update: records affected: 1



GetName: 52855 STARLINK-4209

Hit Count: updated at: Thu, 06 Oct 2022 04:44:36 GMT